Location: Bluewing Marsh
(43.0875°N, 93.4474°W)
Time: 05:44:41
(UTC+00:00)

Daily predictions for brighter satellites

Satellite Brightness Start Highest point End
(mag) Time Altitude Azimuth Time Altitude Azimuth Time Altitude Azimuth
BREEZE-M DEB (TANK) 3.7 00:10:51 10° SW 00:14:34 63° SE 00:27:33 10° ENE
Cosmos 1741 Rocket 4.4 00:13:58 10° S 00:18:53 41° ESE 00:23:47 10° NE
CZ-4C R/B 4.2 00:14:43 10° N 00:18:56 60° WNW 00:22:58 10° SSW
Cosmos 1980 Rocket 2.4 00:13:41 10° S 00:19:08 53° ESE 00:24:35 10° NNE
Cosmos 2297 Rocket 3.6 00:15:20 10° NW 00:20:42 44° WSW 00:26:01 10° S
Cosmos 1733 Rocket 3.4 00:16:58 10° SSE 00:21:10 43° E 00:25:24 10° NNE
NOSS 3-1 (A) 4.3 00:16:04 10° NW 00:23:43 84° SW 00:32:42 10° SSE
SL-4 R/B 3.4 00:22:13 10° NW 00:26:10 31° NNE 00:30:18 10° ENE
Cosmos 1726 3.1 00:23:17 10° SSE 00:26:17 25° E 00:29:20 10° NE
COBE Rocket 4.3 00:23:06 10° SE 00:27:40 41° ENE 00:32:09 10° N
PAYLOAD B 4.2 00:23:10 10° SSE 00:28:37 66° ENE 00:34:05 10° N
MOS 1-B 4.5 00:24:16 10° SE 00:29:55 56° ENE 00:35:35 10° N
Cosmos 2369 3.7 00:24:21 10° SSW 00:30:02 70° ESE 00:35:44 10° NNE
CZ-4 R/B 4.4 00:28:43 10° SSE 00:32:48 82° ENE 00:36:56 10° N
USA 215 4.0 00:28:37 10° NE 00:34:53 51° NNW 00:41:09 10° WSW
Cosmos 2279 Rocket 4.0 00:29:18 10° N 00:35:34 70° E 00:41:48 10° SSE
Cosmos 2278 4.1 00:31:45 10° S 00:37:01 40° ESE 00:42:17 10° NE
CZ-4B DEB 4.4 00:32:30 10° SSE 00:37:56 79° WSW 00:43:26 10° NNW
COSMO-SKYMED 1 2.9 00:33:48 10° N 00:38:09 73° WNW 00:42:28 10° SSW
SL-16 R/B 3.4 00:35:53 10° SE 00:39:51 20° E 00:43:49 10° NE
Cosmos 1805 3.2 00:36:31 10° S 00:40:21 66° E 00:44:13 10° NNE
Okean-O 4.4 00:40:21 12° E 00:42:05 14° ENE 00:44:25 10° NNE
Cosmos 1674 3.7 00:38:57 10° NNW 00:42:35 50° W 00:46:11 10° S
HJ-1C 3.8 00:39:47 10° SE 00:42:40 36° ENE 00:45:34 10° N
Cosmos 1634 Rocket 4.4 00:37:00 10° NNW 00:43:07 67° W 00:49:15 10° S
Cosmos 2142 Rocket 4.5 00:37:04 10° N 00:43:25 79° E 00:49:38 10° S
SL-14 R/B 3.4 00:40:31 10° N 00:44:23 50° ENE 00:48:16 10° SSE
ISS -3.1 00:42:22 10° NW 00:45:36 42° NNE 00:47:58 16° E
ASTEX 1 3.6 00:47:49 10° N 00:52:49 81° W 00:57:48 10° SSW
OBJECT-B 2.6 00:55:38 12° NE 00:55:38 12° NE 00:56:04 10° NE
Cosmos 1766 3.5 00:52:26 10° SSE 00:56:11 46° E 00:59:58 10° NNE
BREEZE M DEB (TANK) 3.5 00:52:31 10° SW 01:00:25 38° SSE 01:02:25 21° E
Cosmos 2263 Rocket 2.2 00:58:19 10° NNW 01:04:00 68° ENE 01:09:41 10° SSE
Cosmos 1908 Rocket 3.7 01:02:36 10° SSE 01:06:44 45° E 01:10:53 10° NNE
Cosmos 968 Rocket 3.9 01:02:45 10° S 01:07:34 38° ESE 01:12:24 10° NE
Cosmos 1733 4.2 01:04:22 10° SSW 01:08:00 48° WNW 01:11:38 10° N
USA 267 3.7 01:03:08 10° SE 01:09:37 63° SW 01:16:07 10° NW
USA 186 3.1 01:10:05 24° ENE 01:10:05 24° ENE 01:12:39 10° NNE
Cosmos 540 Rocket 4.4 01:06:18 10° NNW 01:11:13 50° WSW 01:16:07 10° S
Okean O Rocket 1.5 01:07:09 10° SSE 01:11:30 83° ENE 01:15:54 10° NNW
Cosmos 2227 4.5 01:06:05 10° NNW 01:11:32 47° ENE 01:15:06 20° SE
Cosmos 1782 Rocket 4.3 01:12:52 22° SE 01:14:37 29° E 01:18:23 10° NNE
OAO 2 Rocket 4.4 01:13:50 10° SW 01:18:05 30° S 01:19:58 23° SE
Cosmos 2082 4.5 01:13:04 10° NNW 01:18:38 54° WSW 01:24:11 10° S
Cosmos 489 Rocket 4.4 01:13:15 10° SSW 01:19:35 76° ESE 01:25:55 10° NNE
YAOGAN 1 2.9 01:15:24 10° S 01:19:41 66° W 01:24:00 10° NNW
Meteor 2-16 Rocket 4.4 01:13:48 10° S 01:19:47 60° E 01:25:50 10° NNE
Cosmos 2292 Rocket 4.0 01:15:01 10° S 01:20:41 55° E 01:24:59 10° NNE
Cosmos 1674 Rocket 3.8 01:16:59 10° NNW 01:21:22 74° W 01:25:47 10° S
Meteor 1-15 Rocket 4.1 01:15:55 10° S 01:21:24 61° E 01:26:53 10° NNE
BREEZE-M R/B 2.3 01:20:35 10° SW 01:22:32 74° SSE 01:23:02 51° E
Cosmos 1470 3.2 01:23:03 37° E 01:23:03 37° E 01:26:37 10° NNE
Meteor 2-5 Rocket 3.9 01:18:01 10° N 01:23:21 46° ENE 01:26:30 23° SE
CSL-04 Debris 4.4 01:21:09 20° SE 01:24:45 49° ENE 01:29:57 10° N
Cosmos 841 Rocket 4.1 01:22:21 10° NNW 01:27:25 57° WSW 01:32:26 10° S
IGS 5A 3.7 01:31:41 42° E 01:32:10 44° ENE 01:36:07 10° N
Cosmos 1025 Rocket 4.0 01:29:01 10° NNE 01:32:08 29° NE 01:32:08 29° NE
Cosmos 2026 Rocket 4.0 01:32:31 10° SSE 01:38:23 54° E 01:44:15 10° NNE
Cosmos 1570 Rocket 3.9 01:35:40 10° NNW 01:40:55 65° ENE 01:42:49 38° SE
Cosmos 2285 Rocket 3.9 01:38:15 10° NNW 01:44:38 87° ENE 01:49:12 20° SSE
SJ-6B 2.6 01:45:28 65° NE 01:45:28 65° NE 01:49:01 10° N
Nadezhda 4 Rocket 4.4 01:39:17 10° SSW 01:45:35 67° W 01:51:53 10° N
Cosmos 1975 Rocket 3.5 01:43:01 10° N 01:46:43 44° NE 01:46:43 44° NE
Cosmos 2237 4.2 01:42:22 10° S 01:47:53 53° ESE 01:53:24 10° NE
CZ-4 R/B 2.6 01:44:54 10° S 01:48:51 42° W 01:52:52 10° NNW
CSL-04 Rocket 3.5 01:51:10 35° SSE 01:53:28 78° ENE 01:58:52 10° N
Cosmos 2322 Rocket 2.2 01:49:27 10° S 01:55:01 58° ESE 02:00:38 10° NNE
Resurs 01 Rocket 3.3 01:59:01 21° NNE 01:59:01 21° NNE 02:00:54 10° N
Cosmos 1437 Rocket 3.4 01:54:37 10° SSW 01:58:18 52° WNW 02:01:58 10° N
Cosmos 1980 Rocket 4.3 01:58:47 10° WSW 02:03:26 26° NW 02:08:05 10° N
Cosmos 2208 Rocket 3.9 02:00:34 10° NNW 02:05:59 84° ENE 02:06:55 62° SSE
CRYOSAT 2 4.3 02:04:29 44° S 02:06:05 85° W 02:11:00 10° N
SL-4 R/B 2.2 02:01:37 10° NW 02:06:05 78° NNE 02:06:05 78° NNE
USA 81 4.0 02:09:49 10° N 02:15:07 84° W 02:16:06 60° S
Landsat 7 3.8 02:15:34 74° N 02:15:34 74° N 02:19:54 10° NNW
Resurs 1-3 3.9 02:16:25 63° NNW 02:16:25 63° NNW 02:20:09 10° NNW
Okean-O 2.9 02:17:54 63° WSW 02:18:01 63° WSW 02:22:26 10° NNW
ISS -1.3 02:19:18 10° WNW 02:20:54 21° W 02:20:54 21° W
SL-16 R/B 2.6 02:17:48 10° SW 02:23:23 61° WNW 02:29:02 10° NNE
Cosmos 1092 Rocket 4.5 02:17:52 10° SSW 02:24:05 60° W 02:30:19 10° N
Meteor 1-24 Rocket 4.2 02:24:37 10° NNW 02:29:46 54° W 02:31:16 41° SW
Cosmos 1844 Rocket 2.8 02:24:20 10° NNW 02:29:17 62° NNE 02:29:17 62° NNE
Cosmos 2278 Rocket 4.4 02:34:40 10° NNE 02:36:00 13° NNE 02:36:00 13° NNE
SPOT 1/Viking Rocket 4.5 02:43:25 41° N 02:43:25 41° N 02:46:44 10° NNW
Cosmos 1844 4.4 02:50:10 10° NNW 02:54:07 48° NNW 02:54:07 48° NNW
BREEZE-M DEB (TANK) 4.5 02:56:26 10° WNW 03:09:00 70° W 03:09:00 70° W
ATLAS 2AS CENTAUR R/B 4.5 03:30:11 10° NNW 03:34:53 21° NNE 03:34:53 21° NNE
Cosmos 2322 Rocket 4.2 03:34:54 10° WSW 03:39:28 24° NW 03:44:04 10° N
ADEOS II 4.1 09:05:13 10° N 09:06:48 19° N 09:06:48 19° N
Cosmos 1980 Rocket 3.8 09:06:33 10° N 09:11:29 31° NE 09:16:24 10° ESE
ARIANE 5 R/B 4.4 09:17:51 10° NE 09:21:59 25° E 09:25:07 14° SE
DELTA 2 R/B (1) 4.3 09:27:13 45° SE 09:27:13 45° SE 09:31:27 10° E
ATLAS CENTAUR R/B 2.3 09:36:29 55° NE 09:36:29 55° NE 09:40:19 10° NE
Cosmos 1624 Rocket 4.1 09:37:33 71° NNE 09:37:33 71° NNE 09:42:18 10° NNE
Cosmos 44 Rocket 3.9 09:37:21 51° E 09:37:21 51° E 09:41:33 10° NE
Meteor 1-10 Rocket 4.0 09:43:22 81° S 09:43:40 88° E 09:49:19 10° N
USA 306 4.4 09:46:29 28° N 09:46:29 28° N 09:49:02 10° NE
Cosmos 1833 Rocket 3.0 09:47:57 53° NW 09:47:57 53° NW 09:52:55 10° NNE
FENGYUN 3A 3.6 09:46:10 10° N 09:51:15 66° NW 09:51:15 66° NW
Cosmos 1371 Rocket 4.1 09:52:22 59° NW 09:52:22 59° NW 09:57:02 10° NNE
X-37B 3.3 09:55:00 19° ENE 09:55:00 19° ENE 09:55:58 10° E
BREEZE-M DEB (TANK) 3.2 09:55:11 41° NE 09:55:11 41° NE 09:59:28 10° E
Cosmos 1461 4.4 09:55:31 26° SE 09:56:29 29° ESE 10:00:04 10° NE
Cosmos 1153 Rocket 4.3 09:56:14 44° SSW 09:58:20 81° W 10:04:35 10° N
Cosmos 2100 Rocket 4.3 09:52:51 10° S 09:58:54 65° E 10:05:00 10° NNE
Cosmos 1441 Rocket 4.1 10:02:05 41° NNE 10:02:05 41° NNE 10:04:37 10° N
Atlas Centaur 2 3.9 10:02:04 29° SSW 10:03:03 30° SSW 10:09:35 10° SE
METEOR-M 4.2 09:58:19 10° NNE 10:03:42 78° ESE 10:06:39 27° S
ALOS 2.6 10:01:28 10° N 10:05:22 50° NW 10:05:22 50° NW
IRS-P3 4.3 10:02:07 10° NNE 10:07:29 71° ESE 10:11:30 18° S
Cosmos 1447 Rocket 4.4 10:02:12 10° NNW 10:08:24 60° W 10:13:05 18° SSW
USA 308 4.1 10:08:53 30° NNW 10:08:53 30° NNW 10:12:19 10° NE
Cosmos 2082 Rocket 2.1 10:07:11 42° SSW 10:09:09 89° ESE 10:14:49 10° NNE
CENTAUR R/B 2.8 10:07:44 27° S 10:10:50 62° ESE 10:17:33 10° NE
SL-19 R/B 4.4 10:04:49 10° N 10:10:56 63° WNW 10:12:53 42° SW
YAOGAN 6 3.8 10:09:32 10° NNE 10:13:00 40° E 10:15:40 15° SSE
Cosmos 1697 Rocket 3.5 10:16:37 32° SSW 10:16:37 32° SSW 10:19:59 10° S
CZ-2C R/B 2.7 10:09:30 10° SSE 10:14:42 77° ENE 10:20:03 10° N
Orbus 7S? 3.9 10:15:25 41° NNW 10:15:25 41° NNW 10:19:54 10° NE
Cosmos 1633 Rocket 4.4 10:11:23 10° NNW 10:13:21 25° NNW 10:13:21 25° NNW
CZ-2C R/B 2.4 10:10:47 10° N 10:15:40 58° WNW 10:16:16 54° WSW
CBERS-1 4.5 10:15:23 10° N 10:20:09 40° WNW 10:20:13 40° WNW
Cosmos 1954 Rocket 4.0 10:15:42 10° NNW 10:20:49 54° WSW 10:25:56 10° S
Cosmos 2056 Rocket 4.0 10:21:45 37° WNW 10:21:49 37° WNW 10:26:33 10° N
PAYLOAD A 4.0 10:17:56 10° N 10:22:38 52° WNW 10:23:37 45° WSW
COSMOS 2406 3.3 10:22:26 41° WSW 10:24:01 54° WNW 10:29:37 10° NNE
Meteor 1-11 Rocket 3.8 10:18:34 10° NNW 10:24:24 57° W 10:30:10 10° S
BREEZE-M DEB (TANK) 3.1 10:25:08 27° N 10:25:15 28° N 10:28:28 10° ENE
Cosmos 1346 Rocket 4.1 10:27:50 26° NW 10:27:50 26° NW 10:30:05 10° N
Lacrosse 4 Rocket 3.6 10:22:56 10° N 10:26:43 28° NE 10:30:32 10° ESE
Cosmos 1536 3.6 10:22:52 10° NNW 10:25:31 35° NW 10:25:31 35° NW
Cosmos 1420 Rocket 4.5 10:27:38 37° W 10:28:17 39° WNW 10:33:10 10° N
Cosmos 1328 Rocket 4.1 10:29:13 39° WNW 10:29:13 39° WNW 10:33:02 10° N
Cosmos 1933 Rocket 3.7 10:24:30 10° N 10:28:56 73° E 10:33:18 10° SSE
Helios 1B rocket 2.6 10:28:20 10° N 10:32:14 47° WNW 10:32:35 45° W
Cosmos 1459 Rocket 3.9 10:26:50 10° SSW 10:33:11 76° W 10:39:35 10° N
Delta 2 Rocket 4.4 10:34:01 23° S 10:34:01 23° S 10:36:46 10° SE
USA 305 4.5 10:34:20 20° NW 10:35:25 22° NNW 10:38:41 10° NE
NOSS 3-2 (C) 4.0 10:31:51 10° SSW 10:36:57 50° ESE 10:42:48 10° NE
IKONOS-2 4.5 10:32:52 10° SSE 10:37:05 85° ENE 10:41:20 10° NNW
NOSS 3-2 (A) 3.2 10:34:31 25° SW 10:37:51 85° NW 10:44:07 10° NE
Cosmos 2346 Rocket 4.4 10:32:48 10° NNW 10:38:49 65° W 10:44:51 10° S
CZ-2C R/B 3.7 10:33:49 10° NNE 10:39:31 63° E 10:44:56 10° S
GP-B 3.2 10:37:33 10° S 10:41:59 81° E 10:46:26 10° N
Cosmos 1741 Rocket 4.0 10:40:57 10° NNW 10:46:12 84° ENE 10:51:25 10° SSE
Meteor 1-19 Rocket 4.0 10:41:36 10° SSW 10:47:02 79° W 10:52:29 10° N
Cosmos 2322 Rocket 3.9 10:42:38 10° N 10:47:48 34° NE 10:52:54 10° ESE
Tsikada Rocket 4.5 10:42:17 10° N 10:48:35 65° E 10:54:44 10° SSE
Spot 4 Rocket 4.1 10:43:27 10° NNE 10:48:36 79° ESE 10:53:44 10° S
Cosmos 1802 Rocket 4.0 10:44:39 10° SSW 10:51:00 71° W 10:57:19 10° N
CZ-2D R/B 3.4 10:47:23 10° N 10:51:16 53° WNW 10:54:23 15° SSW
USA 238 DEB 4.0 10:46:29 10° SSW 10:52:43 62° ESE 10:59:21 10° NE
USA 238 4.0 10:46:36 10° SSW 10:52:51 62° ESE 10:59:29 10° NE
Cosmos 1515 Rocket 3.9 10:50:39 19° SW 10:53:26 42° WNW 10:57:41 10° N
Cosmos 1980 Rocket 2.5 10:50:21 10° NW 10:55:35 41° WSW 11:00:47 10° S
Cosmos 1725 Rocket 4.0 10:50:08 10° S 10:56:27 83° W 11:02:49 10° N
Cosmos 1331 Rocket 3.9 10:52:39 10° SSW 10:57:47 89° ESE 11:02:59 10° NNE
SL-08 R/B 3.3 10:54:44 10° S 10:59:18 56° W 11:03:59 10° NNW
ARIANE 5 R/B 2.9 10:56:32 10° N 11:01:10 39° WNW 11:05:27 12° SW
Meteor 2-9 Rocket 4.2 10:55:53 10° NNW 11:01:32 62° W 11:07:00 10° S
Cosmos 1470 Rocket 4.4 10:57:56 10° NNW 11:01:38 28° W 11:05:21 10° SSW
Cosmos 1378 3.2 10:58:46 10° SSW 11:02:16 49° W 11:05:50 10° N
Cosmos 2228 Rocket 3.5 10:58:08 10° S 11:02:35 68° E 11:07:01 10° NNE
CZ-4C R/B 3.5 10:58:36 10° SSE 11:02:46 89° WSW 11:07:08 10° NNW
Meteor 1-29 2.9 11:00:47 10° N 11:04:02 56° WNW 11:07:16 10° SSW
Okean 1 3.8 11:02:55 10° SSW 11:06:39 38° WNW 11:10:27 10° N
Cosmos 2173 Rocket 4.4 11:01:18 10° SW 11:06:59 40° WNW 11:12:42 10° N
Cosmos 2369 4.4 11:02:39 10° NW 11:07:33 31° WSW 11:12:26 10° SSW
SL-24 R/B - RUBIN 2 3.5 11:03:22 12° SW 11:07:33 75° NW 11:11:55 10° NNE
Cosmos 1484 Rocket 3.5 11:03:57 10° N 11:07:34 34° WNW 11:10:50 12° SW
Cosmos 1110 Rocket 4.0 11:06:14 10° SSW 11:11:23 64° WNW 11:16:34 10° NNE
DELTA 2 R/B (1) 3.8 11:07:58 17° W 11:12:10 59° S 11:17:39 10° ESE
Cosmos 2278 3.8 11:08:52 10° NNW 11:14:23 55° WSW 11:19:51 10° S
Cosmos 1452 Rocket 4.0 11:09:27 10° SW 11:14:25 41° WNW 11:19:25 10° N
ATLAS CENTAUR R/B 3.4 11:12:28 14° WNW 11:14:48 18° NW 11:18:10 10° N
CZ-2C R/B 3.1 11:13:12 10° NW 11:15:15 25° W 11:19:01 10° SSW
SL-16 R/B 2.4 11:10:57 10° NNW 11:16:40 77° ENE 11:22:19 10° SSE
NOAA 11 4.2 11:15:33 10° NNE 11:21:03 82° WNW 11:26:30 10° SSW
USA 234 3.4 11:16:12 10° NE 11:22:46 78° SE 11:29:19 10° SW
Envisat 3.4 11:18:24 10° N 11:23:10 42° WNW 11:27:55 10° SW
Cosmos 1242 Rocket 2.5 11:23:00 10° N 11:26:27 79° E 11:29:50 10° SSE
X-37B 0.3 11:26:13 13° WNW 11:28:42 76° SSW 11:31:34 10° ESE
Cosmos 968 Rocket 3.7 11:27:35 10° NNW 11:32:46 77° ENE 11:37:53 10° SSE
COSMO-SKYMED 1 2.5 11:29:17 10° SSE 11:33:37 83° WSW 11:37:59 10° NNW
Meteor 1-18 Rocket 4.4 11:28:13 10° SSW 11:33:47 53° WNW 11:39:17 10° N
Cosmos 1461 3.9 11:31:51 10° WSW 11:35:22 29° NW 11:39:02 10° NNE
BREEZE-M DEB (TANK) 2.6 11:32:05 10° WNW 11:35:31 46° SSW 11:37:51 10° SE
Cosmos 1975 3.1 11:32:44 10° NNW 11:36:32 44° W 11:40:18 10° SSW
Cosmos 1707 Rocket 3.5 11:33:38 10° S 11:37:59 86° W 11:42:21 10° N
Meteor 2-19 Rocket 4.5 11:35:26 10° NNW 11:41:33 65° W 11:47:36 10° S
Cosmos 2219 Rocket 4.3 11:37:57 10° N 11:42:48 28° NE 11:47:35 10° ESE
Cosmos 1869 Rocket 4.2 11:40:06 10° NNW 11:44:07 35° W 11:48:06 10° SSW
SKYMED 3 4.4 11:41:04 10° S 11:45:14 73° WSW 11:49:24 10° NNW
Cosmos 2333 Rocket 3.6 11:42:26 10° NNW 11:47:50 42° ENE 11:53:09 10° SE
